CZ-4C R/B

Satellite information

Favourite Embed

Satellite Type and Status

ROCKET BODYIN ORBIT

Key statistics

Satellite CZ-4C R/B at a glance.

Uptime

5359

Days in orbit

Revolutions

≈ 14.5

Per day

Orbit

SSO

Sun Synchronous Orbit

Inclination

98.8

Latest

Satellite identification and parameters

Extended collection of information and parameters for CZ-4C R/B.

Object identification

Identified? True

Debris? False

Object name: CZ-4C R/B

International designator: 2010-059B

Object number (NORAD): 37215

Object ID (CCSDS): 37215

Country: PEOPLES REPUBLIC OF CHINA (PRC)

Current information (Y/N): Y

RCS size: LARGE

Orbital parameters

Period: 99.472 minutes

Inclination: 98.8144 deg

SMA: 7111.515 km

Apoapsis: 794.876 km

Periapsis: 671.884 km

RAAN: 60.6108 deg

Eccentricy: 0.0086474

Argument of periapsis: 187.3812 deg

Mean anomaly: 172.6113 deg

Mean motion: 14.47636669 rev/day

Mean motion (dot): 0.00000096 rev/day2

B* drag term: 0.000038474 1/REarth

Two-line elements (TLE)

Creation date: July 6, 2025, 6:05 p.m.

Reference frame: TEME

Reference center: EARTH

Epoch: July 6, 2025, 3:18 p.m. UTC

TLE line 0: 0 CZ-4C R/B

TLE line 1: 1 37215U 10059B 25187.63780831 .00000096 00000-0 38474-4 0 9997

TLE line 2: 2 37215 98.8144 60.6108 0086474 187.3812 172.6113 14.47636669774375

Live tracking on map

Real-time ground track for satellite CZ-4C R/B.

In-orbit conjunctions

A list of the most updated potential collisions computed for object CZ-4C R/B.

Target Orbit TCA Probability of collision Miss distance Type
SL-8 DEB * LEO 2025-05-12 03:00:09 0.0001096056 251.0 (m) DEBRIS
FENGYUN 1C DEB SSO 2025-03-30 19:15:03 0.0002029503 424.0 (m) DEBRIS
FENGYUN 1C DEB SSO 2025-01-03 09:15:08 0.0001745085 339.0 (m) DEBRIS
ORBVIEW 1 (MICROLAB) LEO 2024-12-13 00:18:11 0.0005193557 692.0 (m) PAYLOAD

Associated space launch

CZ-4C R/B was lifted into orbit during the mission ‘Long March 4C | Feng Yun-3B’, on board a Long March 4C space rocket.

The launch took place on Nov. 4, 2010, 6:37 p.m. from Launch Complex 7.

For more information about the launch, click the button.

Launch to space Long March 4C | Feng Yun-3B
Long March 4C | Feng Yun-3B

Agency: N/A

Status: Launch Successful

Launch date: Nov. 4, 2010, 6:37 p.m. UTC

Rocket: Long March 4C

Launch pad: Launch Complex 7

Location: Taiyuan Satellite Launch Center, People's Republic of China

...

Latest news about this satellite

There are no fresh news available about this satellite. Check back as we update our databases every day.


Newsletter sign-up

Weekly statistics, charts and insights to help you stay on top of the space industry.